Current weather by "City, St" or "zip code"  
 

Current Conditions: Huntsville, Madison County Executive Airport, AL

Overcast


49.0 F

Last Updated on Oct 29 2020, 7:55 pm CDT
Humidity: 80%
Wind Speed: W 11.5 G 24.2 mph
Barometer 29.89 in
Dewpoint: 43.0 F
Visibility: 10.00 mi
Precip: --
Heat Index: NA
Wind Chill: 44 F
Current conditions at:

Huntsville, Madison County Executive Airport, AL (KMDQ)

Lat: 34.86139 Lon: 86.55722

Local Radar Image active severe weather and emergency alerts image image weather storm and storm spotter reports image weather observation monitoring service image
Local
Radar
Active
Alerts
Storm Reports Obs
Monitoring

Sign-up For Email & Text Message Weather Alert Notification Services



Advertise Here

Observation History for Huntsville, Madison County Executive Airport, AL


Time Wind
(mph)
Vis
(mi)
Weather Precip (in) Temperature (F) Relative
Humidity
Wind
Chill
(F)
Heat
Index
(F)
Pressure
Air Dwpt altimeter
(in)
sea level
(mb)
Rmks
7:55 pm CDT W 11.5 G 24.2 10.00 Overcast -- 49.0 43.0 80% 44 NA 29.89 M
7:35 pm CDT W 16.1 G 24.2 10.00 Overcast -- 49.0 43.0 80% 43 NA 29.89 M
6:55 pm CDT W 15.0 G 21.9 10.00 Overcast -- 50.0 42.4 76% 45 NA 29.86 M
5:55 pm CDT W 19.6 G 31.1 10.00 Overcast -- 53.0 42.3 66% 48 NA 29.80 M
4:55 pm CDT W 24.2 G 34.5 10.00 Overcast and Breezy -- 59.0 47.3 66% 55 NA 29.74 M
3:55 pm CDT W 15.0 G 18.4 10.00 Overcast -- 65.0 53.2 67% NA NA 29.68 M
2:55 pm CDT SW 13.8 G 20.7 10.00 Partly Cloudy -- 68.0 52.5 58% NA NA 29.65 M
1:55 pm CDT W 13.8 G 19.6 10.00 Mostly Cloudy -- 68.0 55.2 63% NA NA 29.66 M
12:55 pm CDT SW 15.0 10.00 Fair -- 68.0 55.9 65% NA NA 29.69 M
11:55 am CDT W 15.0 G 27.6 10.00 Mostly Cloudy -- 67.0 57.2 70% NA NA 29.71 M
10:55 am CDT SW 16.1 G 27.6 10.00 Mostly Cloudy -- 69.0 63.5 82% NA NA 29.70 M
9:55 am CDT SW 18.4 G 24.2 10.00 Overcast -- 71.0 66.0 86% NA NA 29.69 M
8:55 am CDT SW 13.8 G 19.6 10.00 Overcast -- 71.0 68.4 92% NA NA 29.67 M
7:55 am CDT SW 10.4 10.00 Overcast -- 69.0 68.5 97% NA NA 29.64 M
6:55 am CDT SW 11.5 10.00 Overcast -- 69.0 68.0 95% NA NA 29.62 M
5:55 am CDT SW 6.9 10.00 Overcast -- 69.0 68.4 96% NA NA 29.57 M
4:55 am CDT W 8.1 10.00 Overcast -- 69.0 68.4 97% NA NA 29.49 M
3:55 am CDT NW 10.4 10.00 Light Rain -- 70.0 68.5 95% NA NA 29.43 M
2:55 am CDT N 4.6 7.00 Rain -- 70.0 68.4 95% NA NA 29.46 M
1:15 am CDT SE 17.3 G 27.6 4.00 Rain Fog/Mist -- 71.0 69.1 93% NA NA 29.62 M
12:55 am CDT SE 19.6 G 27.6 7.00 Rain Fog/Mist -- 72.0 69.6 93% NA NA 29.64 M
11:55 pm CDT SE 9.2 G 17.3 10.00 Light Rain -- 73.0 70.3 92% NA NA 29.70 M
10:55 pm CDT SE 9.2 G 16.1 10.00 Light Rain -- 73.0 71.1 93% NA NA 29.74 M
9:55 pm CDT SE 10.4 10.00 Light Rain -- 72.0 70.9 95% NA NA 29.78 M

Regional Weather Observation


Redstone Airfield, AL (KHUA)

Overcast
49.0 F

Decatur, Pryor Field, AL (KDCU)

Overcast
49.0 F

Huntsville, Huntsville International / Jones Field, AL (KHSV)

Mostly Cloudy
49.0 F

Winchester Municipal Airport, TN (KBGF)

Overcast
50.0 F

Tullahoma Regional Airport/William Northern Field, TN (KTHA)

Overcast
50.0 F

Scottsboro Municipal Airport, AL (K4A6)

Overcast
52.0 F